Change the Weather History Date:

Monday, January 20, 2014

  Actual Average Record
Temperature  
Mean Temperature 40 °F -  
Max Temperature 43 °F 37 °F 50 °F (2015)
Min Temperature 37 °F 29 °F 19 °F (1999)
Degree Days  
Heating Degree Days 25    
Moisture  
Dew Point 38 °F    
Average Humidity 96    
Maximum Humidity 100    
Minimum Humidity 93    
Precipitation  
Precipitation 0.72 in - - ()
Sea Level Pressure  
Sea Level Pressure 30.13 in    
Wind  
Wind Speed 6 mph (NE)    
Max Wind Speed 13 mph    
Max Gust Speed 18 mph    
Visibility 9 miles    
Events Rain    
Averages and records for this station are not official NWS values.
T = Trace of Precipitation, MM = Missing Value Source: NWS Daily Summary

Daily Weather History Graph

Daily Weather History Graph

Search for Another Location

Airport or City:

Trip Planner

Search our weather history database for the weather conditions in past years. The results will help you decide how hot, cold, wet, or windy it might be!

Date:

Astronomy

Jan. 20, 2014 Rise Set
Actual Time 8:04 AM AKST 4:02 PM AKST
Civil Twilight 7:21 AM AKST 4:45 PM AKST
Nautical Twilight 6:35 AM AKST 5:31 PM AKST
Astronomical Twilight 5:52 AM AKST 6:15 PM AKST
Moon 9:43 PM AKST (1/20) 9:14 AM AKST (1/20)
Length of Visible Light 9h 23m
Length of Day
7h 58m
Waning Gibbous, 81% of the Moon is Illuminated
Jan 20
Waning Gibbous
Jan 23
Last Quarter
Jan 30
New
Feb 6
First Quarter
Feb 14
Full

Hourly Weather History & Observations

Time (AKST) Temp. Windchill Dew Point Humidity Pressure Visibility Wind Dir Wind Speed Gust Speed Precip Events Conditions
12:36 AM 41.0 °F - 39.0 °F 93% 30.21 in 10.0 mi Calm Calm - 0.03 in Rain Light Rain
12:53 AM 41.0 °F 38.0 °F 39.0 °F 93% 30.21 in 10.0 mi NE 4.6 mph - 0.03 in Rain Light Rain
1:01 AM 41.0 °F 37.1 °F 39.0 °F 93% 30.20 in 10.0 mi NNE 5.8 mph - 0.00 in Rain Light Rain
1:53 AM 39.9 °F 34.5 °F 39.0 °F 97% 30.20 in 10.0 mi NNE 8.1 mph - 0.02 in Rain Light Rain
2:50 AM 39.2 °F 33.6 °F 39.2 °F 100% 30.20 in 10.0 mi NNE 8.1 mph - 0.01 in Rain Light Rain
3:14 AM 39.9 °F 35.8 °F 39.0 °F 97% 30.20 in 10.0 mi NE 5.8 mph - 0.01 in Rain Light Rain
4:53 AM 39.0 °F 35.7 °F 39.0 °F 100% 30.18 in 9.0 mi NE 4.6 mph - 0.02 in Rain Light Rain
5:53 AM 39.0 °F 35.7 °F 37.9 °F 96% 30.17 in 10.0 mi ENE 4.6 mph - 0.04 in Rain Light Rain
6:53 AM 39.0 °F 32.3 °F 37.9 °F 96% 30.15 in 9.0 mi NE 10.4 mph - 0.04 in Rain Light Rain
7:53 AM 37.9 °F 32.1 °F 37.0 °F 97% 30.14 in 8.0 mi NE 8.1 mph - 0.04 in Rain Light Rain
8:53 AM 37.0 °F 29.3 °F 36.0 °F 96% 30.15 in 9.0 mi NNE 11.5 mph - 0.07 in Rain Light Rain
9:36 AM 37.0 °F 29.8 °F 36.0 °F 96% 30.14 in 10.0 mi NNE 10.4 mph 17.3 mph 0.05 in Rain Light Rain
9:53 AM 37.0 °F 29.3 °F 35.1 °F 93% 30.14 in 10.0 mi NNE 11.5 mph - 0.05 in Rain Light Rain
10:53 AM 37.0 °F 28.9 °F 36.0 °F 96% 30.14 in 10.0 mi NNE 12.7 mph 18.4 mph 0.02 in   Overcast
11:53 AM 37.0 °F 31.6 °F 36.0 °F 96% 30.14 in 7.0 mi Variable 6.9 mph - 0.03 in Rain Light Rain
12:53 PM 37.9 °F 32.7 °F 37.0 °F 97% 30.13 in 5.0 mi NE 6.9 mph - 0.05 in Rain Light Rain
1:53 PM 37.9 °F 32.7 °F 37.0 °F 97% 30.12 in 4.0 mi NNE 6.9 mph - 0.08 in Rain Rain
2:53 PM 37.9 °F 31.5 °F 37.0 °F 97% 30.11 in 4.0 mi NE 9.2 mph - 0.10 in Rain Rain
3:53 PM 37.9 °F 31.5 °F 37.0 °F 97% 30.09 in 6.0 mi NNE 9.2 mph - 0.10 in Rain Rain
4:51 PM 37.4 °F 32.1 °F 37.4 °F 100% 30.10 in 10.0 mi NNE 6.9 mph - 0.02 in Rain Light Rain
4:53 PM 37.9 °F 33.5 °F 37.0 °F 97% 30.10 in 10.0 mi NNE 5.8 mph - 0.02 in Rain Light Rain
6:16 PM 39.0 °F 34.8 °F 37.9 °F 96% 30.08 in 10.0 mi NE 5.8 mph - 0.00 in Rain Light Rain
6:53 PM 39.0 °F 32.8 °F 39.0 °F 100% 30.07 in 10.0 mi NNE 9.2 mph - 0.00 in   Overcast
7:39 PM 39.9 °F - 39.9 °F 100% 30.09 in 10.0 mi Calm Calm - 0.01 in   Overcast
7:53 PM 39.9 °F 34.5 °F 39.9 °F 100% 30.07 in 10.0 mi NNE 8.1 mph - 0.01 in   Overcast
8:53 PM 41.0 °F - 41.0 °F 100% 30.06 in 10.0 mi Calm Calm - N/A   Overcast
9:53 PM 43.0 °F - 41.0 °F 93% 30.07 in 10.0 mi Calm Calm - N/A   Overcast
10:41 PM 43.0 °F 41.3 °F 41.0 °F 93% 30.06 in 10.0 mi NNE 3.5 mph - N/A   Mostly Cloudy
10:53 PM 43.0 °F 41.3 °F 41.0 °F 93% 30.07 in 10.0 mi NE 3.5 mph - N/A   Mostly Cloudy
11:53 PM 43.0 °F - 41.0 °F 93% 30.06 in 10.0 mi Calm Calm - N/A   Partly Cloudy